Tracking 23762 objects as of 19-Oct-2021
HD Live streaming from Space Station
objects crossing your sky now

FLOCK 3R 16

Track FLOCK 3R 16 now!
10-day predictions
FLOCK 3R 16 is classified as:


NORAD ID: 43735
Int'l Code: 2018-096S
Perigee: 458.2 km
Apogee: 483.2 km
Inclination: 97.4 °
Period: 93.9 minutes
Semi major axis: 6841 km
RCS: Unknown
Launch date: November 29, 2018
Source: United States (US)
Launch site: SRIHARIKOTA (SRI)
aabbcc
Your satellite tracking list
Your tracking list is empty




NASA's NSSDC Master Catalog

Two Line Element Set (TLE):
1 43735U 18096S   21291.75002127  .00014917  00000-0  45170-3 0  9997
2 43735  97.3827  11.5297 0018274 187.3433 172.7545 15.34101130161183
Source of the keplerian elements: AFSPC